Regional Weather Roundup
Issued by NWS

Home | Current Version | Previous Version | Text Only | Print | Product List | Glossary On
Versions: 1 2 3 4 5 6 7 8 9 10 11 12 13 14 15 16 17 18 19 20 21 22 23 24 25 26 27 28 29 30 31 32 33 34 35 36 37 38 39 40 41 42 43 44 45 46 47 48 49 50
000
ASUS43 KLSX 300259
RWRMO

WEATHER SUMMARY FOR MISSOURI
NATIONAL WEATHER SERVICE SPRINGFIELD MO
1000 PM CDT TUE JUL 29 2014

NOTE: "FAIR" INDICATES FEW OR NO CLOUDS BELOW 12,000 FEET WITH NO
       SIGNIFICANT WEATHER AND/OR OBSTRUCTIONS TO VISIBILITY.
       CURRENT SKY AND/OR WEATHER CONDITIONS ARE NOT AVAILABLE FOR
       CHILLICOTHE AND FARMINGTON.

MOZ001>031-035>038-043-044-053-054-300400-
...NORTHERN AND WESTERN MISSOURI...

CITY           SKY/WX    TMP DP  RH WIND       PRES   REMARKS
KANSAS CTY INT PTCLDY    70  60  70 NE6       30.10R
KANSAS C DTWN  CLEAR     74  58  57 N5        30.08R
LEE`S SUMMIT   MOCLDY    74  58  57 NE5       30.10R
ST JOSEPH      CLOUDY    69  61  75 N5        30.10R
KIRKSVILLE     CLEAR     61  58  90 CALM      30.10R

$$
MOZ066>068-077>081-088>096-101>105-300400-
...SOUTHWEST MISSOURI...

CITY           SKY/WX    TMP DP  RH WIND       PRES   REMARKS
SPRINGFIELD    MOCLDY    71  59  65 CALM      30.10R
JOPLIN         PTCLDY    69  60  73 NE3       30.10R

$$
MOZ032>034-039>042-045>050-055>058-069>072-300400-
...CENTRAL MISSOURI...

CITY           SKY/WX    TMP DP  RH WIND       PRES   REMARKS
COLUMBIA       CLEAR     67  58  72 CALM      30.10R
JEFFERSON CITY PTCLDY    68  58  70 CALM      30.08R
ROLLA          MOCLDY    65  55  70 CALM      30.09R
SEDALIA        PTCLDY    70  58  65 CALM      30.10R
OSAGE BEACH      N/A     66  57  72 CALM      30.10R

$$
MOZ051-052-059>065-300400-
...EAST CENTRAL MISSOURI...

CITY           SKY/WX    TMP DP  RH WIND       PRES   REMARKS
ST LOUIS INTL  PTCLDY    72  56  57 CALM      30.09R
SPIRIT OF STL  CLEAR     64  58  80 CALM      30.08R
ST CHARLES     CLEAR     65  59  81 CALM      30.07R

$$
MOZ072>076-082>087-097>100-106>115-300400-
...SOUTH CENTRAL AND SOUTHEAST MISSOURI...

CITY           SKY/WX    TMP DP  RH WIND       PRES   REMARKS
CAPE GIRARDEAU CLEAR     64  60  87 CALM      30.09R
FARMINGTON     CLEAR     64  55  72 CALM      30.12R
POPLAR BLUFF   CLEAR     64  58  80 CALM      30.08R
WEST PLAINS    PTCLDY    68  59  73 CALM      30.12R

$$


USA.gov is the U.S. government's official web portal to all federal, state and local government web resources and services.